KLM1848 KLAX-KSFO

Flight info

Callsign KLM1848
Flight time N/A
Altitude 36000
Route SUMMR2 STOKD DCT SERFR SERFR4
Aircraft B738/M-L/S

Departure

Time 2026-05-05 13:50
Airport Los Angeles International Airport (KLAX)

Arrival

Time N/A
Airport San Francisco International Airport (KSFO)
Time Latitude Longitude Altitude Speed Heading
2026-05-05 13:42 33.94120 -118.39169 108 ft 0 kts 353°
2026-05-05 13:44 33.94134 -118.39168 108 ft 5 kts 13°
2026-05-05 13:44 33.94161 -118.39143 107 ft 10 kts 62°
2026-05-05 13:44 33.94114 -118.39036 105 ft 8 kts 161°
2026-05-05 13:45 33.94082 -118.39024 105 ft 0 kts 171°
2026-05-05 13:46 33.94059 -118.39005 105 ft 8 kts 119°
2026-05-05 13:46 33.94064 -118.38907 105 ft 14 kts 84°
2026-05-05 13:46 33.94079 -118.38763 105 ft 19 kts 82°
2026-05-05 13:46 33.94101 -118.38541 105 ft 15 kts 84°
2026-05-05 13:47 33.94113 -118.38416 102 ft 15 kts 87°
2026-05-05 13:47 33.94085 -118.38343 101 ft 15 kts 138°
2026-05-05 13:47 33.94060 -118.38225 101 ft 15 kts 82°
2026-05-05 13:47 33.94073 -118.38100 101 ft 13 kts 83°
2026-05-05 13:48 33.94075 -118.38036 101 ft 0 kts 110°
2026-05-05 13:48 33.94070 -118.38024 101 ft 4 kts 120°
2026-05-05 13:49 33.94044 -118.37999 101 ft 10 kts 163°
2026-05-05 13:49 33.93977 -118.38064 101 ft 17 kts 263°
2026-05-05 13:49 33.93961 -118.38240 101 ft 37 kts 263°
2026-05-05 13:49 33.93844 -118.39415 114 ft 166 kts 264°
2026-05-05 13:50 33.93753 -118.40385 609 ft 180 kts 264°
2026-05-05 13:50 33.93651 -118.41774 1966 ft 168 kts 267°
2026-05-05 13:50 33.93623 -118.43207 2656 ft 186 kts 270°
2026-05-05 13:50 33.93597 -118.44859 3328 ft 210 kts 269°
2026-05-05 13:51 33.93558 -118.46704 4116 ft 231 kts 269°
2026-05-05 13:51 33.93515 -118.48704 4909 ft 252 kts 269°
2026-05-05 13:51 33.93452 -118.51586 6216 ft 267 kts 269°
2026-05-05 13:51 33.93418 -118.53077 6931 ft 271 kts 269°
2026-05-05 13:52 33.93368 -118.55325 8003 ft 276 kts 269°
2026-05-05 13:52 33.93316 -118.57638 9070 ft 280 kts 269°
2026-05-05 13:52 33.93245 -118.60777 10299 ft 292 kts 269°
2026-05-05 13:52 33.93212 -118.62193 10533 ft 307 kts 269°
2026-05-05 13:53 33.93161 -118.64406 11210 ft 317 kts 269°
2026-05-05 13:53 33.93120 -118.66213 11675 ft 328 kts 266°
2026-05-05 13:53 33.93038 -118.70007 12578 ft 349 kts 266°
2026-05-05 13:54 33.92990 -118.71936 13201 ft 353 kts 266°
2026-05-05 13:54 33.92915 -118.74896 14124 ft 358 kts 266°
2026-05-05 13:54 33.92840 -118.77924 15063 ft 362 kts 266°
2026-05-05 13:54 33.92766 -118.80921 15960 ft 366 kts 266°